logo tempoitalia

Diretta Meteo Svartnes, Norvegialunedì 31 agosto ore 07:20

Mappa
Sereno 14 °C Sereno 24 Ore: T.min 12 T.max 15
Ponente Sud Km/h 22.2 Punto di rugiada: 12 °C Umidità: 87% Visibilità: 10 Km
Il sole sorge alle: 04:05 Il sole tramonta alle: 19:47
31 Agosto 2026 07:20 tempo osservato: Sereno Sereno 14 87 1004 vento: Nord S 22.2
31 Agosto 2026 06:50 tempo osservato: Coperto Coperto 14 87 1004 vento: Nord S/SO 14.8
31 Agosto 2026 06:20 tempo osservato: Coperto Coperto 13 93 1004 vento: Nord S 22.2
31 Agosto 2026 05:50 tempo osservato: Coperto Coperto 12 93 1004 vento: Nord S 18.5
31 Agosto 2026 05:20 tempo osservato: Coperto Coperto 13 93 1004 vento: Nord S 11.1
31 Agosto 2026 04:50 tempo osservato: Coperto Coperto 13 93 1004 vento: Nord SO 7.4
31 Agosto 2026 04:20 tempo osservato: Coperto Coperto 13 93 1004 vento: Nord S 18.5
31 Agosto 2026 03:50 tempo osservato: Coperto Coperto 13 93 1004 vento: Nord S 18.5
31 Agosto 2026 03:20 tempo osservato: Coperto Coperto 12 100 1004 vento: Nord S 20.3
31 Agosto 2026 02:50 tempo osservato: Coperto Coperto 13 87 1004 vento: Nord S 27.8
31 Agosto 2026 02:20 tempo osservato: Coperto Coperto 12 93 1004 vento: Nord S 20.3
31 Agosto 2026 01:50 tempo osservato: Pioggia Pioggia 12 93 1004 vento: Nord S 22.2
31 Agosto 2026 01:20 tempo osservato: Pioggia Pioggia 12 93 1005 vento: Nord S/SE 18.5
31 Agosto 2026 00:50 tempo osservato: Pioggia Pioggia 12 93 1005 vento: Nord S 20.3
31 Agosto 2026 00:20 tempo osservato: Coperto Coperto 13 81 1005 vento: Nord S 27.8
30 Agosto 2026 23:50 tempo osservato: Coperto Coperto 13 81 1005 vento: Nord S 35.2
30 Agosto 2026 23:20 tempo osservato: Coperto Coperto 13 81 1005 vento: Nord S 22.2
30 Agosto 2026 22:50 tempo osservato: Coperto Coperto 13 81 1006 vento: Nord S 29.6
30 Agosto 2026 22:20 tempo osservato: Pioviggine Pioviggine 14 76 1006 vento: Nord S 38.8
30 Agosto 2026 21:50 tempo osservato: Coperto Coperto 14 76 1006 vento: Nord S 38.8
30 Agosto 2026 21:20 tempo osservato: Coperto Coperto 14 76 1006 vento: Nord S 33.3
30 Agosto 2026 20:50 tempo osservato: Coperto Coperto 13 81 1006 vento: Nord S 22.2
30 Agosto 2026 20:20 tempo osservato: Coperto Coperto 13 81 1006 vento: Nord S 20.3
30 Agosto 2026 19:50 tempo osservato: Coperto Coperto 12 87 1006 vento: Nord S/SE 18.5
30 Agosto 2026 19:20 tempo osservato: Coperto Coperto 12 87 1006 vento: Nord S/SE 20.3
30 Agosto 2026 18:20 tempo osservato: Sereno Sereno 13 81 1007 vento: Nord S/SE 22.2
30 Agosto 2026 17:50 tempo osservato: Coperto Coperto 13 81 1007 vento: Nord S 18.5
30 Agosto 2026 17:20 tempo osservato: Coperto Coperto 13 81 1007 vento: Nord S 18.5
30 Agosto 2026 16:50 tempo osservato: Coperto Coperto 13 81 1008 vento: Nord S/SE 18.5
30 Agosto 2026 16:20 tempo osservato: Coperto Coperto 13 81 1008 vento: Nord S/SE 18.5
30 Agosto 2026 15:50 tempo osservato: Coperto Coperto 13 81 1008 vento: Nord S/SE 16.7
30 Agosto 2026 15:20 tempo osservato: Molto Nuvoloso Molto Nuvoloso 14 76 1008 vento: Nord S/SE 20.3
30 Agosto 2026 14:50 tempo osservato: Pioggia Pioggia 14 82 1008 vento: Nord S 29.6
30 Agosto 2026 14:20 tempo osservato: Sereno Sereno 14 82 1009 vento: Nord S 37
30 Agosto 2026 13:50 tempo osservato: Sereno Sereno 15 76 1009 vento: Nord S/SO 29.6
30 Agosto 2026 13:20 tempo osservato: Pioviggine Pioviggine 15 76 1009 vento: Nord S 33.3
30 Agosto 2026 12:20 tempo osservato: Sereno Sereno 15 72 1009 vento: Nord S 29.6
30 Agosto 2026 11:50 tempo osservato: Molto Nuvoloso Molto Nuvoloso 15 72 1009 vento: Nord S 31.5
30 Agosto 2026 11:20 tempo osservato: Coperto Coperto 15 67 1010 vento: Nord S 35.2
30 Agosto 2026 10:50 tempo osservato: Coperto Coperto 14 71 1010 vento: Nord S 35.2
30 Agosto 2026 10:20 tempo osservato: Coperto Coperto 13 81 1010 vento: Nord S 22.2
30 Agosto 2026 09:50 tempo osservato: Coperto Coperto 13 76 1010 vento: Nord S 20.3
30 Agosto 2026 09:20 tempo osservato: Coperto Coperto 13 81 1010 vento: Nord S 29.6
30 Agosto 2026 08:50 tempo osservato: Coperto Coperto 13 81 1011 vento: Nord S 22.2
30 Agosto 2026 08:20 tempo osservato: Coperto Coperto 12 87 1011 vento: Nord S 25.9
30 Agosto 2026 07:50 tempo osservato: Coperto Coperto 12 81 1011 vento: Nord S 22.2